Wolf Point, MT

3:30 PM MDT on April 28, 2017 (GMT -0600)
Clayton

Weather History for KOLF - August, 2014

Change the Weather History Date:

Friday, August 22, 2014

  Actual Average Record
Temperature  
Mean Temperature 66 °F -  
Max Temperature 71 °F 84 °F 98 °F (2001)
Min Temperature 60 °F 51 °F 42 °F (2015)
Degree Days  
Heating Degree Days 0    
Cooling Degree Days 1    
Growing Degree Days 14 (Base 50)    
Moisture  
Dew Point 56 °F    
Average Humidity 78    
Maximum Humidity 90    
Minimum Humidity 61    
Precipitation  
Precipitation 0.46 in 0.03 in 0.46 in (2014)
Month to date precipitation 3.28 1.05  
Year to date precipitation 8.45 9.44  
Sea Level Pressure  
Sea Level Pressure 30.09 in    
Wind  
Wind Speed 9 mph (ENE)    
Max Wind Speed 18 mph    
Max Gust Speed 24 mph    
Visibility 9 miles    
Events Rain    
T = Trace of Precipitation, MM = Missing Value Source: NWS Daily Summary

Daily Weather History Graph

Daily Weather History Graph

Search for Another Location

Airport or City:

Trip Planner

Search our weather history database for the weather conditions in past years. The results will help you decide how hot, cold, wet, or windy it might be!

Date:

Astronomy

Aug. 22, 2014 Rise Set
Actual Time 6:06 AM MDT 8:02 PM MDT
Civil Twilight 5:33 AM MDT 8:35 PM MDT
Nautical Twilight 4:51 AM MDT 9:16 PM MDT
Astronomical Twilight 4:06 AM MDT 10:02 PM MDT
Moon 3:25 AM MDT (8/22) 6:16 PM MDT (8/22)
Length of Visible Light 15h 02m
Length of Day
13h 56m
Waning Crescent, 7% of the Moon is Illuminated
Aug 22
Waning Crescent
Aug 25
New
Sep 2
First Quarter
Sep 8
Full
Sep 15
Last Quarter

Hourly Weather History & Observations

Time (MDT) Temp. Dew Point Humidity Pressure Visibility Wind Dir Wind Speed Gust Speed Precip Events Conditions
12:53 AM 62.1 °F 57.0 °F 84% 30.04 in 4.0 mi NE 4.6 mph - 0.06 in Rain Light Rain
1:53 AM 62.1 °F 57.0 °F 84% 30.05 in 10.0 mi Calm Calm - 0.04 in Rain Light Rain
2:53 AM 62.6 °F 57.2 °F 82% 30.06 in 10.0 mi NE 5.8 mph - N/A Rain Light Rain
3:53 AM 61.0 °F 57.9 °F 90% 30.06 in 6.0 mi NNE 9.2 mph - 0.05 in Rain Light Rain
4:53 AM 61.0 °F 57.9 °F 90% 30.06 in 5.0 mi NE 10.4 mph - 0.03 in Rain Light Rain
5:53 AM 61.0 °F 57.9 °F 90% 30.09 in 6.0 mi ENE 10.4 mph - 0.01 in Rain Light Rain
6:53 AM 61.0 °F 57.0 °F 87% 30.10 in 10.0 mi ENE 8.1 mph - 0.12 in Rain Light Rain
7:53 AM 61.0 °F 57.0 °F 87% 30.10 in 10.0 mi ENE 11.5 mph - 0.00 in Rain Light Rain
8:53 AM 61.0 °F 57.0 °F 87% 30.11 in 10.0 mi ENE 12.7 mph - 0.03 in Rain Light Rain
9:01 AM 61.0 °F 57.0 °F 87% 30.11 in 10.0 mi ENE 10.4 mph - 0.00 in Rain Light Rain
9:41 AM 61.0 °F 57.0 °F 87% 30.12 in 10.0 mi ENE 9.2 mph - 0.01 in Rain Light Rain
9:53 AM 61.0 °F 57.0 °F 87% 30.12 in 6.0 mi ENE 10.4 mph - 0.01 in Rain Light Rain
10:53 AM 61.0 °F 57.0 °F 87% 30.12 in 5.0 mi ENE 10.4 mph - 0.08 in Rain Light Rain
11:53 AM 62.1 °F 57.0 °F 84% 30.11 in 10.0 mi NE 12.7 mph - 0.04 in Rain Light Rain
12:53 PM 64.0 °F 57.0 °F 78% 30.11 in 10.0 mi NE 10.4 mph - 0.01 in Rain Light Rain
1:53 PM 64.9 °F 57.0 °F 75% 30.10 in 10.0 mi NE 10.4 mph - 0.01 in Rain Light Rain
2:53 PM 66.2 °F 57.2 °F 73% 30.09 in 10.0 mi NE 12.7 mph - N/A   Overcast
3:53 PM 66.0 °F 55.9 °F 70% 30.08 in 10.0 mi ENE 12.7 mph - 0.01 in Rain Light Rain
4:53 PM 68.0 °F 54.0 °F 61% 30.07 in 10.0 mi NE 12.7 mph - 0.00 in   Overcast
5:53 PM 68.0 °F 54.0 °F 61% 30.07 in 10.0 mi ENE 16.1 mph - N/A   Overcast
6:53 PM 66.9 °F 54.0 °F 63% 30.08 in 10.0 mi ENE 18.4 mph 24.2 mph N/A   Overcast
7:53 PM 66.0 °F 54.0 °F 65% 30.09 in 10.0 mi ENE 13.8 mph - N/A   Overcast
8:53 PM 64.9 °F 54.0 °F 68% 30.11 in 10.0 mi ENE 11.5 mph - N/A   Overcast
9:53 PM 64.0 °F 55.0 °F 73% 30.12 in 10.0 mi ENE 11.5 mph - N/A   Overcast
10:01 PM 64.0 °F 54.0 °F 70% 30.12 in 10.0 mi ENE 12.7 mph - N/A   Overcast
10:42 PM 64.0 °F 54.0 °F 70% 30.11 in 10.0 mi ENE 16.1 mph - N/A   Overcast
10:53 PM 64.0 °F 54.0 °F 70% 30.10 in 10.0 mi ENE 15.0 mph - N/A   Overcast
11:53 PM 64.0 °F 54.0 °F 70% 30.10 in 10.0 mi ENE 13.8 mph - N/A   Overcast